Weather History for Albert Lea, MN

Change the Weather History Date:

Sunday, March 10, 2013

  Actual Average Record
Temperature  
Mean Temperature 32 °F -  
Max Temperature 35 °F 31 °F 62 °F (2012)
Min Temperature 30 °F 17 °F -5 °F (2003)
Degree Days  
Heating Degree Days 32    
Moisture  
Dew Point 33 °F    
Average Humidity 100    
Maximum Humidity 100    
Minimum Humidity 100    
Precipitation  
Precipitation 0.17 in - - ()
Sea Level Pressure  
Sea Level Pressure 29.78 in    
Wind  
Wind Speed 15 mph (North)    
Max Wind Speed 24 mph    
Max Gust Speed 36 mph    
Visibility 3 miles    
Events Fog , Snow    
Averages and records for this station are not official NWS values.
T = Trace of Precipitation, MM = Missing Value Source: NWS Daily Summary

Daily Weather History Graph

Daily Weather History Graph

Search for Another Location

Airport:

Trip Planner

Search our weather history database for the weather conditions in past years. The results will help you decide how hot, cold, wet, or windy it might be!

Date:

Astronomy

Mar. 10, 2013 Rise Set
Actual Time 7:34 AM CDT 7:13 PM CDT
Civil Twilight 7:05 AM CDT 7:42 PM CDT
Nautical Twilight 6:32 AM CDT 8:15 PM CDT
Astronomical Twilight 5:58 AM CDT 8:49 PM CDT
Moon 6:35 AM CDT (3/10) 6:22 PM CDT (3/10)
Length of Visible Light 12h 37m
Length of Day
11h 39m
Waning Crescent, 2% of the Moon is Illuminated
Mar 10
Waning Crescent
Mar 11
New
Mar 19
First Quarter
Mar 27
Full
Apr 2
Last Quarter

Hourly Weather History & Observations

Time (CDT) Temp. Windchill Dew Point Humidity Pressure Visibility Wind Dir Wind Speed Gust Speed Precip Events Conditions
12:14 AM 35.6 °F 29.2 °F 35.6 °F 100% 29.73 in 0.5 mi North 8.1 mph - N/A Fog Fog
12:33 AM 35.6 °F 28.6 °F 35.6 °F 100% 29.73 in 0.8 mi North 9.2 mph - N/A   Overcast
12:54 AM 35.6 °F 29.9 °F 35.6 °F 100% 29.74 in 1.2 mi North 6.9 mph - N/A   Overcast
1:14 AM 35.6 °F 29.9 °F 35.6 °F 100% 29.75 in 3.0 mi North 6.9 mph - N/A   Overcast
1:33 AM 35.6 °F 28.0 °F 35.6 °F 100% 29.73 in 4.0 mi North 10.4 mph - N/A   Overcast
1:54 AM 35.6 °F 29.2 °F 35.6 °F 100% 29.74 in 5.0 mi North 8.1 mph - N/A   Overcast
3:14 AM 35.6 °F 27.5 °F 35.6 °F 100% 29.74 in 4.0 mi North 11.5 mph - N/A   Overcast
3:33 AM 35.6 °F 27.5 °F 35.6 °F 100% 29.73 in 1.8 mi North 11.5 mph - N/A   Drizzle
3:54 AM 35.6 °F 27.5 °F 35.6 °F 100% 29.74 in 4.0 mi North 11.5 mph - N/A   Drizzle
4:13 AM 35.6 °F 26.2 °F 35.6 °F 100% 29.70 in 4.0 mi North 15.0 mph - N/A   Overcast
4:34 AM 35.6 °F 25.9 °F 35.6 °F 100% 29.70 in 5.0 mi North 16.1 mph 21.9 mph N/A   Overcast
4:54 AM 35.6 °F 25.9 °F 35.6 °F 100% 29.71 in 5.0 mi North 16.1 mph 20.7 mph N/A Snow Light Snow
5:13 AM 35.6 °F 25.5 °F 35.6 °F 100% 29.72 in 5.0 mi North 17.3 mph 21.9 mph N/A   Overcast
5:34 AM 35.6 °F 27.5 °F 35.6 °F 100% 29.74 in 7.0 mi North 11.5 mph 21.9 mph N/A   Overcast
5:54 AM 35.6 °F 27.1 °F 35.6 °F 100% 29.76 in 7.0 mi North 12.7 mph 24.2 mph N/A   Overcast
6:13 AM 35.6 °F 28.0 °F 35.6 °F 100% 29.78 in 5.0 mi North 10.4 mph - 0.01 in   Overcast
6:34 AM 33.8 °F 22.8 °F 33.8 °F 100% 29.78 in 2.5 mi North 18.4 mph - 0.03 in   Overcast
7:34 AM 33.8 °F 23.9 °F 33.8 °F 100% 29.80 in 7.0 mi North 15.0 mph - 0.01 in   Overcast
7:54 AM 33.8 °F 23.9 °F 33.8 °F 100% 29.81 in 7.0 mi North 15.0 mph 20.7 mph N/A   Overcast
8:13 AM 33.8 °F 23.5 °F 33.8 °F 100% 29.82 in 4.0 mi North 16.1 mph 19.6 mph N/A Snow Light Snow
8:34 AM 33.8 °F 23.2 °F 33.8 °F 100% 29.82 in 3.0 mi North 17.3 mph 25.3 mph 0.01 in Snow Light Snow
8:54 AM 33.8 °F 22.2 °F 33.8 °F 100% 29.81 in 3.0 mi North 20.7 mph 24.2 mph N/A Snow Light Snow
9:13 AM 33.8 °F 23.5 °F 33.8 °F 100% 29.82 in 5.0 mi North 16.1 mph 25.3 mph N/A   Overcast
9:34 AM 33.8 °F 22.8 °F 33.8 °F 100% 29.83 in 2.0 mi North 18.4 mph 24.2 mph N/A Snow Light Snow
9:54 AM 33.8 °F 23.5 °F 33.8 °F 100% 29.85 in 1.5 mi North 16.1 mph 21.9 mph N/A Snow Light Snow
10:13 AM 33.8 °F 22.8 °F 33.8 °F 100% 29.83 in 2.0 mi North 18.4 mph - N/A Snow Light Snow
10:34 AM 33.8 °F 22.2 °F 33.8 °F 100% 29.84 in 4.0 mi North 20.7 mph 25.3 mph N/A Snow Light Snow
10:54 AM 33.8 °F 21.9 °F 33.8 °F 100% 29.85 in 5.0 mi North 21.9 mph 26.5 mph N/A   Overcast
11:13 AM 33.8 °F 22.5 °F 33.8 °F 100% 29.84 in 5.0 mi North 19.6 mph 28.8 mph N/A Snow Light Snow
11:34 AM 33.8 °F 21.9 °F 33.8 °F 100% 29.82 in 7.0 mi NNE 21.9 mph 32.2 mph N/A   Overcast
11:54 AM 33.8 °F 23.5 °F 33.8 °F 100% 29.87 in 7.0 mi North 16.1 mph 25.3 mph N/A   Overcast
12:13 PM 33.8 °F 22.5 °F 33.8 °F 100% 29.85 in 7.0 mi NNE 19.6 mph 24.2 mph N/A   Overcast
12:34 PM 33.8 °F 22.8 °F 33.8 °F 100% 29.83 in 7.0 mi North 18.4 mph 32.2 mph N/A   Overcast
12:54 PM 33.8 °F 22.2 °F 33.8 °F 100% 29.81 in 5.0 mi NNE 20.7 mph 27.6 mph N/A   Overcast
1:13 PM 33.8 °F 22.2 °F 33.8 °F 100% 29.82 in 7.0 mi NNE 20.7 mph 28.8 mph N/A   Overcast
1:34 PM 33.8 °F 21.6 °F 33.8 °F 100% 29.80 in 7.0 mi NNE 23.0 mph 28.8 mph N/A   Overcast
1:54 PM 33.8 °F 22.2 °F 33.8 °F 100% 29.80 in 7.0 mi NNE 20.7 mph 28.8 mph N/A   Overcast
2:13 PM 33.8 °F 22.8 °F 33.8 °F 100% 29.79 in 7.0 mi North 18.4 mph 26.5 mph N/A   Overcast
2:34 PM 33.8 °F 21.9 °F 33.8 °F 100% 29.80 in 7.0 mi North 21.9 mph 27.6 mph N/A   Overcast
2:54 PM 33.8 °F 22.5 °F 33.8 °F 100% 29.79 in 7.0 mi North 19.6 mph 27.6 mph N/A   Overcast
3:13 PM 33.8 °F 21.3 °F 33.8 °F 100% 29.78 in 7.0 mi NNE 24.2 mph 29.9 mph N/A   Overcast
3:34 PM 33.8 °F 21.9 °F 33.8 °F 100% 29.78 in 1.5 mi North 21.9 mph 35.7 mph N/A Snow Light Snow
3:53 PM 33.8 °F 21.3 °F 33.8 °F 100% 29.76 in 1.0 mi North 24.2 mph 32.2 mph N/A Snow Light Snow
4:14 PM 33.8 °F 21.3 °F 33.8 °F 100% 29.76 in 1.2 mi NNE 24.2 mph 29.9 mph N/A Snow Light Snow
4:33 PM 33.8 °F 21.9 °F 33.8 °F 100% 29.76 in 1.2 mi NNE 21.9 mph 28.8 mph N/A Snow Light Snow
4:54 PM 33.8 °F 21.6 °F 33.8 °F 100% 29.76 in 1.0 mi North 23.0 mph 26.5 mph N/A Snow Light Snow
5:14 PM 33.8 °F 21.9 °F 33.8 °F 100% 29.76 in 0.5 mi NNE 21.9 mph 28.8 mph 0.01 in Snow Snow
5:33 PM 33.8 °F 22.5 °F 33.8 °F 100% 29.76 in 0.5 mi North 19.6 mph 27.6 mph 0.01 in Snow Light Snow
5:53 PM 33.8 °F 22.2 °F 33.8 °F 100% 29.75 in 0.5 mi North 20.7 mph 27.6 mph 0.01 in Snow Light Snow
6:14 PM 33.8 °F 23.2 °F 33.8 °F 100% 29.76 in 0.8 mi North 17.3 mph - 0.01 in Snow Light Snow
6:33 PM 33.8 °F 23.9 °F 33.8 °F 100% 29.78 in 1.0 mi North 15.0 mph 19.6 mph 0.01 in Snow Light Snow
6:53 PM 33.8 °F 23.9 °F 33.8 °F 100% 29.80 in 0.8 mi North 15.0 mph 21.9 mph 0.01 in Snow Light Snow
7:14 PM 32.0 °F 22.1 °F 32.0 °F 100% 29.82 in 0.8 mi North 13.8 mph 18.4 mph 0.03 in Snow Snow
7:33 PM 32.0 °F 23.0 °F 32.0 °F 100% 29.83 in 0.8 mi North 11.5 mph - 0.04 in Snow Snow
7:53 PM 32.0 °F 22.1 °F 32.0 °F 100% 29.83 in 0.8 mi North 13.8 mph - 0.01 in Snow Snow
8:14 PM 30.2 °F 18.9 °F 30.2 °F 100% 29.81 in 1.0 mi North 16.1 mph 20.7 mph 0.03 in Snow Snow
8:33 PM 30.2 °F 18.9 °F 30.2 °F 100% 29.80 in 1.0 mi North 16.1 mph 24.2 mph 0.04 in Snow Snow
8:53 PM 30.2 °F 17.8 °F 30.2 °F 100% 29.79 in 1.0 mi North 19.6 mph 25.3 mph N/A Snow Light Snow
9:14 PM 30.2 °F 17.8 °F 30.2 °F 100% 29.79 in 1.2 mi North 19.6 mph 24.2 mph 0.01 in Snow Light Snow
9:33 PM 30.2 °F 18.1 °F 30.2 °F 100% 29.78 in 1.5 mi North 18.4 mph 25.3 mph 0.01 in Snow Light Snow
9:53 PM 30.2 °F 18.9 °F 30.2 °F 100% 29.78 in 2.0 mi North 16.1 mph 24.2 mph N/A Snow Light Snow
10:14 PM 30.2 °F 18.1 °F 30.2 °F 100% 29.78 in 1.5 mi North 18.4 mph 26.5 mph N/A Snow Light Snow
10:33 PM 30.2 °F 18.9 °F 30.2 °F 100% 29.78 in 1.2 mi North 16.1 mph 24.2 mph N/A Snow Light Snow
10:54 PM 30.2 °F 18.9 °F 30.2 °F 100% 29.78 in 1.5 mi North 16.1 mph 21.9 mph N/A Snow Light Snow
11:13 PM 30.2 °F 18.9 °F 30.2 °F 100% 29.78 in 1.2 mi North 16.1 mph 21.9 mph N/A Snow Light Snow
11:33 PM 30.2 °F 19.3 °F 30.2 °F 100% 29.78 in 1.5 mi North 15.0 mph 20.7 mph 0.01 in Snow Light Snow
11:54 PM 30.2 °F 19.3 °F 30.2 °F 100% 29.78 in 2.0 mi North 15.0 mph 20.7 mph N/A Snow Light Snow
12:13 AM 30.2 °F 19.8 °F 30.2 °F 100% 29.78 in 1.5 mi North 13.8 mph 19.6 mph N/A Snow Light Snow
12:33 AM 30.2 °F 19.8 °F 30.2 °F 100% 29.78 in 1.5 mi North 13.8 mph 19.6 mph N/A Snow Light Snow
12:54 AM 30.2 °F 19.8 °F 30.2 °F 100% 29.78 in 2.0 mi North 13.8 mph - N/A Snow Light Snow